Αρχική σελίδα
METAR-TAF:

METAR-TAF

Αεροδρόμια :

Tekamah Municipal Airport

Tekamah, Νεμπράσκα, Ηνωμένες Πολιτείες Αμερικής

γεωγραφικό πλάτος: 41-46-01N, γεωγραφικό μήκος: 096-10-40W, υψόμετρο: 313 μ

Παρών καιρός

Η αναφορά έγινε 56 λεπτά πριν, στις 14:54 UTC
Άνεμος 3 kt από Β/BA
Θερμοκρασία 0°C
Υγρασία 86%
Πίεση 1032 hPa
Ορατότητα: 16.1 χλμ

METAR: KTQE 181454Z AUTO 03003KT 10SM 00/M02 A3047 RMK AO2 SLP324 T00001022 $

Χρόνος: 10:50 (15:50 UTC)


TAF: λείπει

Μετεωρολογικές αναφορές και προγνώσεις για περισσότερα από 4000 αεροδρόμια (δελτία METAR και TAF).

Οι διαθέσιμοι σταθμοί απεικονίζονται στο χάρτη με κίτρινες και κόκκινες κουκκίδες.

Μετακινήστε το ποντίκι πάνω από τις κουκκίδες για να δείτε το όνομα του σταθμού.

Στη συνέχεια, κάντε κλικ για να δείτε τις μετεωρολογικές αναφορές και τις προγνώσεις καιρού.

Για να αλλάξετε το χάρτη: κάντε κλικ στα πράσινα κουμπιά με τον μαύρο σταυρό για να ζουμάρετε, στο πράσινο κουμπί με την παύλα για να αφαιρέσετε το ζουμ ή στα πράσινα βέλη για να αντιπαραβάλλετε χάρτες.


METAR-TAF: